COSMOS 2520 (42907 NORAD) Tracking and Keplerian Element Data

This shows tracking and keplerian element data for the satellite.

Feedback or suggestion? Click here.




ElementValue
Catalog42907
NameCOSMOS 2520
Epoch Orbit1876
Epoch Day269.94285537
Epoch Year2022
RAAN144.3311
Inclination0.0153
Eccentricity6.62E-05
Argument of Perigee11.8783
Mean Anonmoly233.9663
Mean Motion1.00274275
Decay Rate1.4E-06
L11 42907U 17046A 22269.94285537 .00000140 00000+0 00000+0 0 9997
L22 42907 0.0153 144.3311 0000662 11.8783 233.9663 1.00274275 18764

Live tracking and technical data element details for COSMOS 2520 (NORAD 42907). COSMOS 2520 can be tracked NOW for your location showing map with azimuth and elevation plus other details from your city location.

Track the satellite on the map from your city or location and see movement details for azimuth, elevation, latitude, longitude, range, height, and movement on the map or in text.







IsCatalogInMostPopularTable: catalog: 42907, numindb: 685
Update: records affected: 1



GetName: 42907 COSMOS 2520

Hit Count: updated at: Thu, 29 Sep 2022 12:06:45 GMT